{"data":{"norad_id":65335,"epoch":"2026-05-25T04:20:03.850368Z","epoch_age_seconds":58780,"freshness":"FRESH","line1":"1 65335U 25189N   26145.18060012  .00013694  00000+0  47348-3 0  9994","line2":"2 65335  53.1588 211.7443 0001278  85.2921 274.8226 15.30209952 42813","mean_motion":15.30209952,"eccentricity":0.0001278,"inclination_deg":53.1588,"raan_deg":211.7443,"arg_perigee_deg":85.2921,"mean_anomaly_deg":274.8226,"bstar":0.00047348,"rev_number":4281,"period_min":94.104733675134,"perigee_km":474.3095001053,"apogee_km":476.06120929916,"semimajor_km":6853.3223547022,"source":"CELESTRAK","updated_at":"2026-05-25T13:38:20.760548Z"}}